When you browse on this site, cookies collect data to enhance your experience and personalize the content and advertising you see.
Visit our Privacy Policy to learn more. By continuing to use the site, you agree to this use of cookies and data.
  • In Hungary
  • List of Countries
  • For 7 days
  • Water Temperature
  • Weather Map
  • News
  • Weather Widgets
  • user-avatar
    Login

    Hourly Weather Kebyachevo

    Today, 15 October, Tuesday

    Time Temperature Precipitation Wind Pressure Humidity
    00:00 +6°C° 0 mm 5 mps 741 mmHg 88%
    01:00 +5°C° 0 mm 4 mps 741 mmHg 90%
    02:00 +5°C° 0 mm 4 mps 741 mmHg 90%
    03:00 +5°C° 0 mm 4 mps 741 mmHg 91%
    04:00 +4°C° 0 mm 4 mps 741 mmHg 91%
    05:00 +5°C° 0.1 mm 4 mps 740 mmHg 90%
    06:00 +5°C° 0.1 mm 4 mps 740 mmHg 90%
    07:00 +5°C° 0.1 mm 4 mps 739 mmHg 90%
    08:00 +5°C° 1 mm 4 mps 739 mmHg 91%
    09:00 +5°C° 1 mm 4 mps 738 mmHg 92%
    10:00 +5°C° 1 mm 4 mps 737 mmHg 94%
    11:00 +6°C° 1.2 mm 4 mps 736 mmHg 94%
    12:00 +6°C° 1.2 mm 4 mps 736 mmHg 95%
    13:00 +7°C° 1.2 mm 4 mps 735 mmHg 96%
    14:00 +8°C° 1.2 mm 3 mps 735 mmHg 96%
    15:00 +8°C° 1.2 mm 3 mps 734 mmHg 96%
    16:00 +9°C° 1.2 mm 2 mps 734 mmHg 97%
    17:00 +8°C° 0.8 mm 2 mps 735 mmHg 96%
    18:00 +8°C° 0.8 mm 2 mps 735 mmHg 96%
    19:00 +7°C° 0.8 mm 3 mps 735 mmHg 96%
    20:00 +7°C° 0.6 mm 3 mps 736 mmHg 93%
    21:00 +6°C° 0.6 mm 4 mps 736 mmHg 90%
    22:00 +5°C° 0.6 mm 4 mps 737 mmHg 87%
    23:00 +5°C° 0.1 mm 4 mps 737 mmHg 87%

    Tomorrow, 16 October, Wednesday

    Time Temperature Precipitation Wind Pressure Humidity
    00:00 +5°C° 0.1 mm 4 mps 738 mmHg 86%
    01:00 +5°C° 0.1 mm 4 mps 739 mmHg 85%
    02:00 +4°C° 0 mm 4 mps 739 mmHg 86%
    03:00 +4°C° 0 mm 4 mps 740 mmHg 87%
    04:00 +3°C° 0 mm 4 mps 741 mmHg 88%
    05:00 +3°C° 0.2 mm 4 mps 741 mmHg 89%
    06:00 +2°C° 0.2 mm 5 mps 742 mmHg 89%
    07:00 +2°C° 0.2 mm 5 mps 742 mmHg 89%
    08:00 +2°C° 0.1 mm 5 mps 743 mmHg 84%
    09:00 +2°C° 0.1 mm 6 mps 743 mmHg 79%
    10:00 +2°C° 0.1 mm 6 mps 744 mmHg 74%
    11:00 +2°C° 0.1 mm 6 mps 745 mmHg 71%
    12:00 +3°C° 0.1 mm 6 mps 745 mmHg 68%
    13:00 +3°C° 0.1 mm 7 mps 746 mmHg 65%
    14:00 +2°C° 0 mm 6 mps 746 mmHg 67%
    15:00 +2°C° 0 mm 6 mps 747 mmHg 68%
    16:00 +2°C° 0 mm 6 mps 747 mmHg 70%
    17:00 +1°C° 0 mm 5 mps 747 mmHg 71%
    18:00 +1°C° 0 mm 5 mps 748 mmHg 72%
    19:00 +1°C° 0 mm 5 mps 749 mmHg 73%
    20:00 0°C° 0 mm 4 mps 749 mmHg 74%
    21:00 0°C° 0 mm 4 mps 749 mmHg 76%
    22:00 0°C° 0 mm 4 mps 750 mmHg 77%
    23:00 0°C° 0 mm 3 mps 750 mmHg 78%

    Day after tomorrow, 17 October, Thursday

    Time Temperature Precipitation Wind Pressure Humidity
    00:00 0°C° 0 mm 3 mps 750 mmHg 80%
    01:00 -1°C° 0 mm 3 mps 750 mmHg 81%
    02:00 -1°C° 0 mm 2 mps 751 mmHg 81%
    03:00 -1°C° 0 mm 2 mps 751 mmHg 82%
    04:00 -1°C° 0 mm 2 mps 751 mmHg 82%
    05:00 -1°C° 0 mm 2 mps 751 mmHg 82%
    06:00 -1°C° 0 mm 2 mps 752 mmHg 83%
    07:00 -2°C° 0 mm 2 mps 752 mmHg 83%
    08:00 -1°C° 0 mm 2 mps 752 mmHg 78%
    09:00 +1°C° 0 mm 2 mps 752 mmHg 73%
    10:00 +2°C° 0 mm 2 mps 752 mmHg 69%
    11:00 +2°C° 0 mm 3 mps 751 mmHg 67%
    12:00 +3°C° 0 mm 3 mps 751 mmHg 66%
    13:00 +4°C° 0 mm 3 mps 751 mmHg 64%
    14:00 +4°C° 0 mm 4 mps 750 mmHg 66%
    15:00 +4°C° 0 mm 4 mps 750 mmHg 68%
    16:00 +4°C° 0 mm 4 mps 750 mmHg 71%
    17:00 +2°C° 0.7 mm 5 mps 749 mmHg 74%
    18:00 +2°C° 0.7 mm 5 mps 749 mmHg 77%
    19:00 +2°C° 0.7 mm 5 mps 748 mmHg 80%
    20:00 +2°C° 0.6 mm 6 mps 748 mmHg 78%
    21:00 +2°C° 0.6 mm 6 mps 747 mmHg 75%
    22:00 +3°C° 0.6 mm 6 mps 746 mmHg 73%
    23:00 +2°C° 0 mm 6 mps 746 mmHg 72%

    18 October, Friday

    Time Temperature Precipitation Wind Pressure Humidity
    00:00 +2°C° 0 mm 7 mps 745 mmHg 71%
    01:00 +2°C° 0 mm 7 mps 744 mmHg 70%
    02:00 +2°C° 0 mm 7 mps 744 mmHg 69%
    03:00 +2°C° 0 mm 7 mps 743 mmHg 68%
    04:00 +2°C° 0 mm 7 mps 743 mmHg 67%
    05:00 +2°C° 0.5 mm 7 mps 742 mmHg 70%
    06:00 +2°C° 0.5 mm 7 mps 742 mmHg 73%
    07:00 +2°C° 0.5 mm 7 mps 741 mmHg 76%
    08:00 +2°C° 0.6 mm 7 mps 741 mmHg 79%
    09:00 +2°C° 0.6 mm 7 mps 741 mmHg 82%
    10:00 +3°C° 0.6 mm 7 mps 741 mmHg 84%
    11:00 +2°C° 0.2 mm 6 mps 741 mmHg 84%
    12:00 +2°C° 0.2 mm 6 mps 742 mmHg 84%
    13:00 +2°C° 0.2 mm 5 mps 742 mmHg 83%
    14:00 +2°C° 0 mm 5 mps 743 mmHg 79%
    15:00 +2°C° 0 mm 5 mps 743 mmHg 74%
    16:00 +2°C° 0 mm 5 mps 744 mmHg 69%
    17:00 +1°C° 0 mm 5 mps 744 mmHg 71%
    18:00 0°C° 0 mm 5 mps 745 mmHg 72%
    19:00 0°C° 0 mm 5 mps 746 mmHg 74%
    20:00 0°C° 0 mm 5 mps 746 mmHg 74%
    21:00 0°C° 0 mm 5 mps 747 mmHg 74%
    22:00 0°C° 0 mm 4 mps 747 mmHg 74%
    23:00 -1°C° 0 mm 4 mps 748 mmHg 78%

    19 October, Saturday

    Time Temperature Precipitation Wind Pressure Humidity
    00:00 -2°C° 0 mm 4 mps 748 mmHg 82%
    01:00 -1°C° 0 mm 3 mps 748 mmHg 86%
    02:00 -2°C° 0 mm 3 mps 749 mmHg 86%
    03:00 -2°C° 0 mm 3 mps 749 mmHg 86%
    04:00 -2°C° 0 mm 3 mps 750 mmHg 86%
    05:00 -2°C° 0 mm 3 mps 750 mmHg 85%
    06:00 -2°C° 0 mm 3 mps 751 mmHg 84%
    07:00 -3°C° 0 mm 4 mps 751 mmHg 82%
    08:00 -3°C° 0 mm 4 mps 752 mmHg 78%
    09:00 -2°C° 0 mm 4 mps 752 mmHg 73%
    10:00 -1°C° 0 mm 4 mps 753 mmHg 68%
    11:00 +1°C° 0 mm 3 mps 753 mmHg 64%
    12:00 +2°C° 0 mm 3 mps 753 mmHg 59%
    13:00 +3°C° 0 mm 2 mps 753 mmHg 55%
    14:00 +3°C° 0 mm 2 mps 753 mmHg 57%
    15:00 +3°C° 0 mm 2 mps 753 mmHg 59%
    16:00 +4°C° 0 mm 1 mps 754 mmHg 61%
    17:00 +3°C° 0 mm 1 mps 754 mmHg 64%
    18:00 +2°C° 0 mm 1 mps 754 mmHg 68%
    19:00 +1°C° 0 mm 1 mps 754 mmHg 71%
    20:00 +1°C° 0 mm 1 mps 754 mmHg 72%
    21:00 +1°C° 0 mm 1 mps 755 mmHg 72%
    22:00 +1°C° 0 mm 1 mps 755 mmHg 73%
    23:00 -1°C° 0 mm 2 mps 755 mmHg 73%

    20 October, Sunday

    Time Temperature Precipitation Wind Pressure Humidity
    00:00 -1°C° 0 mm 2 mps 755 mmHg 73%
    01:00 -2°C° 0 mm 3 mps 755 mmHg 74%
    02:00 -2°C° 0 mm 3 mps 755 mmHg 72%
    03:00 -2°C° 0 mm 3 mps 755 mmHg 71%
    04:00 -2°C° 0 mm 3 mps 755 mmHg 70%
    05:00 -2°C° 0 mm 3 mps 755 mmHg 70%
    06:00 -2°C° 0 mm 3 mps 755 mmHg 70%
    07:00 -2°C° 0 mm 3 mps 755 mmHg 70%
    08:00 -2°C° 0 mm 3 mps 755 mmHg 67%
    09:00 -1°C° 0 mm 3 mps 755 mmHg 63%
    10:00 -1°C° 0 mm 4 mps 755 mmHg 59%
    11:00 0°C° 0 mm 4 mps 755 mmHg 58%
    12:00 0°C° 0 mm 4 mps 755 mmHg 57%
    13:00 +1°C° 0 mm 4 mps 755 mmHg 56%
    14:00 +2°C° 0 mm 3 mps 755 mmHg 58%
    15:00 +2°C° 0 mm 3 mps 754 mmHg 60%
    16:00 +3°C° 0 mm 2 mps 754 mmHg 62%
    17:00 +2°C° 0 mm 2 mps 754 mmHg 66%
    18:00 +1°C° 0 mm 2 mps 754 mmHg 69%
    19:00 -1°C° 0 mm 2 mps 754 mmHg 73%
    20:00 -1°C° 0 mm 2 mps 754 mmHg 73%
    21:00 -1°C° 0 mm 2 mps 754 mmHg 73%
    22:00 -1°C° 0 mm 2 mps 755 mmHg 73%
    23:00 -2°C° 0 mm 2 mps 755 mmHg 73%
    Show more